KD8LPB Weather Reports


time (UTC)temp
C
wind
direction
speed
KPH
gust
KPH
rain 1hr
cm
rain 24hr
cm
rain mn
cm
humidity
%
barometer
mb
20260502233039 6 0 0.0 0.0 0.00 0.00 0.00 53 1012.4
20260502231542 6 0 0.0 1.6 0.00 0.00 0.00 60 1012.4
20260502230036 6 0 0.0 0.0 0.00 0.00 0.00 69 1012.4
20260502224535 6 0 0.0 0.0 0.00 0.00 0.00 68 1012.7
20260502223039 5 304 0.0 1.6 0.00 0.00 0.00 70 1012.8
20260502221542 5 306 0.0 3.2 0.00 0.00 0.00 70 1013.0
20260502220052 5 225 0.0 3.2 0.00 0.00 0.00 75 1013.1
20260502214536 5 300 1.6 4.8 0.00 0.00 0.00 75 1013.3
20260502213043 5 316 1.6 6.4 0.00 0.00 0.00 74 1013.4
20260502211536 6 315 1.6 3.2 0.00 0.00 0.00 72 1013.6
20260502210041 6 262 1.6 6.4 0.00 0.00 0.00 74 1013.7
20260502204538 5 283 1.6 4.8 0.00 0.00 0.00 77 1013.9
20260502203047 6 230 1.6 8.0 0.00 0.00 0.00 76 1014.1
20260502201540 5 282 1.6 4.8 0.00 0.00 0.00 79 1014.3
20260502200041 4 291 3.2 4.8 0.00 0.00 0.00 83 1014.4
20260502194548 5 316 1.6 6.4 0.00 0.00 0.00 83 1014.6
20260502193039 5 307 1.6 4.8 0.00 0.00 0.00 82 1014.8
20260502191542 4 311 1.6 6.4 0.00 0.00 0.00 84 1015.0
20260502190037 4 289 1.6 6.4 0.00 0.00 0.00 83 1015.0
20260502184540 4 311 1.6 4.8 0.00 0.00 0.00 81 1015.1
20260502183048 3 310 3.2 6.4 0.00 0.00 0.00 78 1015.1
20260502181538 3 305 3.2 6.4 0.00 0.00 0.00 76 1015.2
20260502163100 3 309 3.2 4.8 0.00 0.00 0.00 80 1015.7
20260502161542 3 320 3.2 4.8 0.00 0.00 0.00 81 1015.7
20260502151539 3 311 1.6 4.8 0.00 0.00 0.00 85 1015.7
20260502123037 2 0 0.0 6.4 0.00 0.00 0.00 90 1016.1
20260502121542 1 0 0.0 1.6 0.00 0.00 0.00 90 1016.0
20260502114546 1 324 1.6 3.2 0.00 0.00 0.00 89 1015.9
20260502113039 1 0 0.0 3.2 0.00 0.00 0.00 90 1015.8
20260502111535 1 304 1.6 4.8 0.00 0.00 0.00 90 1015.8
20260502110036 1 296 0.0 3.2 0.00 0.00 0.00 91 1015.6
20260502104541 0 0 0.0 0.0 0.00 0.00 0.00 94 1015.7
20260502103039 0 0 0.0 0.0 0.00 0.00 0.00 94 1015.7
20260502101537 0 329 0.0 3.2 0.00 0.00 0.00 96 1015.7
20260502070049 0 236 0.0 6.4 0.00 0.00 0.00 92 1015.4
20260502064545 1 238 0.0 4.8 0.00 0.00 0.00 91 1015.4
20260502063040 1 284 1.6 4.8 0.00 0.00 0.00 92 1015.4
20260502061535 0 304 0.0 4.8 0.00 0.00 0.00 91 1015.5
20260502060033 1 224 0.0 11.3 0.00 0.00 0.00 91 1015.6
20260502054536 1 259 1.6 3.2 0.00 0.00 0.00 90 1015.5
20260502053038 1 253 1.6 6.4 0.00 0.00 0.00 90 1015.6
20260502051537 1 212 1.6 8.0 0.00 0.00 0.00 91 1015.7
20260502050036 1 0 0.0 8.0 0.00 0.00 0.00 90 1015.8
20260502044539 1 217 1.6 11.3 0.00 0.00 0.00 87 1015.8
20260502043038 1 345 1.6 4.8 0.00 0.00 0.00 89 1015.9
20260502041540 0 248 1.6 6.4 0.00 0.00 0.00 92 1016.0
20260502040038 0 240 0.0 3.2 0.00 0.00 0.00 92 1016.0
20260502034539 0 217 0.0 12.9 0.00 0.00 0.00 92 1016.1
20260502033037 0 0 1.6 8.0 0.00 0.00 0.00 91 1016.2
20260502031534 0 0 0.0 3.2 0.00 0.00 0.00 92 1016.1
20260502030040 0 242 1.6 4.8 0.00 0.00 0.00 91 1016.2
20260502024541 0 157 0.0 4.8 0.00 0.00 0.00 92 1016.3
20260502023035 0 200 0.0 4.8 0.00 0.00 0.00 90 1016.4
20260502021537 0 211 0.0 4.8 0.00 0.00 0.00 91 1016.4
20260502020032 1 261 0.0 4.8 0.00 0.00 0.00 90 1016.5
20260502014551 1 286 0.0 4.8 0.00 0.00 0.00 90 1016.4
20260502013038 1 288 1.6 6.4 0.00 0.00 0.00 89 1016.3
20260502011544 1 293 1.6 6.4 0.00 0.00 0.00 88 1016.3
20260502010040 1 281 1.6 6.4 0.00 0.00 0.00 87 1016.1
20260502004539 1 293 1.6 4.8 0.00 0.00 0.00 86 1016.1
20260502003037 1 252 0.0 4.8 0.00 0.00 0.00 85 1016.2
20260502001536 2 300 0.0 8.0 0.00 0.00 0.00 85 1016.0
20260502000047 2 304 1.6 9.7 0.00 0.00 0.00 85 1016.0
20260501234541 2 308 4.8 8.0 0.00 0.00 0.00 83 1016.0